千帆星座-232(QIANFAN-232)

导读

QIANFAN-232(NORAD编号69861)是中国千帆星座的组网卫星,该星座由上海垣信卫星主导运营,核心服务于低轨卫星互联网通信场景,上海瀚讯为其独家提供通信载荷。截至2026年7月,千帆星座正推进一期648颗卫星组网工程,预计2026年底完成初步组网,建成后可提供广域低延时通信服务,支撑工业互联、应急通信、偏远区域网络覆盖等多元应用,是中国商业低轨卫星星座建设的核心项目之一。

基本信息
目录编号:
69861
目录名称:
QIANFAN-232
国际标识:
2026-155P
轨道中心:
EARTH
卫星名称:
千帆星座-232
卫星全名:
千帆星座-232(QIANFAN-232)
卫星状态:
在轨 (已飞行62 天)
发射日期:
2026-07-05 UTC
国别 :
中国 (CN)
星等 :
--
轨道信息
数据来源 国际轨道数据
星历时间: 2026-09-05T04:45:57+0800
10小时前
查看轨道信息
半长轴: 7405.75km
偏心率: 0.0025995
轨道倾角: 89.006°
近地点辐角 42.241°
升交点赤经 55.273°
平近点角 318.074°
近地点: 1008.361km
远地点: 1046.865km
周期: 105.709分钟
每日圈数: 13.622262
详细信息
卫星平台:
232
覆盖范围:
全球
运营商:
上海垣信卫星科技有限公司
运营商所在国:
中国
使用方式:
暂无
卫星简介
千帆星座,也被称为“G60星链”计划,是中国版“星链”的重要组成部分,旨在打造一个由1.4万多颗低轨宽频多媒体卫星构成的庞大星座。千帆星座计划由上海垣信卫星科技有限公司负责实施,于2023年启动建设。该项目是我国第二个低轨卫星大星座,旨在通过构建庞大的卫星网络,为全球用户提供高质量的通信和宽带互联网服务。
2D轨道图
3D轨道图
轨道高度分析图
轨道倾角分析图
轨道综合分析图
查看轨道综合分析图